iso_date,Year,Hour,Min,DOY,POS_DOY,Lat,Lon,BP,Ts,Ta,has_bp,has_ts,has_ta,BuoyID,Buoy_Type,Buoy_Owner,Logistics,Hemisphere
2021-11-23T16:00:02Z,2021,16,0,327.6667,327.6667,64.052,-61.204,997.0,-0.3,-999.0,yes,yes,no,300234068346580,BD2GHI,AOML,UNKNOWN,North
2021-11-23T17:00:57Z,2021,17,1,327.709,327.709,64.065,-61.173,994.8,-0.29,-999.0,yes,yes,no,300234068346580,BD2GHI,AOML,UNKNOWN,North
2021-11-23T18:03:01Z,2021,18,3,327.7521,327.7521,64.077,-61.14,992.8,-0.3,-999.0,yes,yes,no,300234068346580,BD2GHI,AOML,UNKNOWN,North
2021-11-23T19:00:02Z,2021,19,0,327.7917,327.7917,64.086,-61.122,991.1,-0.32,-999.0,yes,yes,no,300234068346580,BD2GHI,AOML,UNKNOWN,North
2021-11-23T20:00:57Z,2021,20,1,327.834,327.834,64.094,-61.106,990.0,-0.33,-999.0,yes,yes,no,300234068346580,BD2GHI,AOML,UNKNOWN,North
2021-11-23T21:00:00Z,2021,21,0,327.875,327.875,64.102,-61.094,990.0,-0.33,-999.0,yes,yes,no,300234068346580,BD2GHI,AOML,UNKNOWN,North
2021-11-23T22:03:04Z,2021,22,3,327.9188,327.9188,64.11,-61.082,991.9,-0.32,-999.0,yes,yes,no,300234068346580,BD2GHI,AOML,UNKNOWN,North
2021-11-23T23:00:57Z,2021,23,1,327.959,327.959,64.116,-61.068,993.0,-0.3,-999.0,yes,yes,no,300234068346580,BD2GHI,AOML,UNKNOWN,North
2021-11-24T00:00:00Z,2021,0,0,328.0,328.0,64.121,-61.051,993.2,-0.28,-999.0,yes,yes,no,300234068346580,BD2GHI,AOML,UNKNOWN,North
2021-11-24T01:00:02Z,2021,1,0,328.0417,328.0417,64.124,-61.033,994.3,-0.27,-999.0,yes,yes,no,300234068346580,BD2GHI,AOML,UNKNOWN,North
2021-11-24T01:59:57Z,2021,2,0,328.0833,328.0833,64.128,-61.009,996.1,-0.27,-999.0,yes,yes,no,300234068346580,BD2GHI,AOML,UNKNOWN,North
2021-11-24T04:00:02Z,2021,4,0,328.1667,328.1667,64.132,-60.954,998.8,-0.25,-999.0,yes,yes,no,300234068346580,BD2GHI,AOML,UNKNOWN,North
2021-11-24T04:59:57Z,2021,5,0,328.2083,328.2083,64.132,-60.928,1000.2,-0.25,-999.0,yes,yes,no,300234068346580,BD2GHI,AOML,UNKNOWN,North
2021-11-24T06:00:00Z,2021,6,0,328.25,328.25,64.132,-60.91,1000.9,-0.26,-999.0,yes,yes,no,300234068346580,BD2GHI,AOML,UNKNOWN,North
2021-11-24T07:00:02Z,2021,7,0,328.2917,328.2917,64.132,-60.901,1002.2,-0.26,-999.0,yes,yes,no,300234068346580,BD2GHI,AOML,UNKNOWN,North
2021-11-24T07:59:57Z,2021,8,0,328.3333,328.3333,64.131,-60.901,1003.4,-0.4,-999.0,yes,yes,no,300234068346580,BD2GHI,AOML,UNKNOWN,North
2021-11-24T09:01:00Z,2021,9,1,328.3757,328.3757,64.135,-60.902,1004.2,-0.44,-999.0,yes,yes,no,300234068346580,BD2GHI,AOML,UNKNOWN,North
2021-11-24T10:00:02Z,2021,10,0,328.4167,328.4167,64.14,-60.901,1005.5,-0.49,-999.0,yes,yes,no,300234068346580,BD2GHI,AOML,UNKNOWN,North
2021-11-24T11:01:58Z,2021,11,2,328.4597,328.4597,64.144,-60.893,1006.9,-0.48,-999.0,yes,yes,no,300234068346580,BD2GHI,AOML,UNKNOWN,North
2021-11-24T12:01:00Z,2021,12,1,328.5007,328.5007,64.146,-60.882,1008.2,-0.52,-999.0,yes,yes,no,300234068346580,BD2GHI,AOML,UNKNOWN,North
2021-11-24T13:03:56Z,2021,13,4,328.5444,328.5444,64.15,-60.863,1010.4,-0.54,-999.0,yes,yes,no,300234068346580,BD2GHI,AOML,UNKNOWN,North
2021-11-24T13:59:57Z,2021,14,0,328.5833,328.5833,64.153,-60.84,1011.5,-0.55,-999.0,yes,yes,no,300234068346580,BD2GHI,AOML,UNKNOWN,North
2021-11-24T15:00:00Z,2021,15,0,328.625,328.625,64.154,-60.812,1012.6,-0.55,-999.0,yes,yes,no,300234068346580,BD2GHI,AOML,UNKNOWN,North
2021-11-24T16:01:03Z,2021,16,1,328.6674,328.6674,64.154,-60.787,1013.4,-0.52,-999.0,yes,yes,no,300234068346580,BD2GHI,AOML,UNKNOWN,North
2021-11-24T17:01:58Z,2021,17,2,328.7097,328.7097,64.153,-60.766,1014.4,-0.54,-999.0,yes,yes,no,300234068346580,BD2GHI,AOML,UNKNOWN,North
2021-11-24T18:00:00Z,2021,18,0,328.75,328.75,64.156,-60.749,1015.4,-0.56,-999.0,yes,yes,no,300234068346580,BD2GHI,AOML,UNKNOWN,North
2021-11-24T19:01:03Z,2021,19,1,328.7924,328.7924,64.158,-60.753,1016.0,-0.57,-999.0,yes,yes,no,300234068346580,BD2GHI,AOML,UNKNOWN,North
2021-11-24T20:00:57Z,2021,20,1,328.834,328.834,64.163,-60.754,1017.1,-0.56,-999.0,yes,yes,no,300234068346580,BD2GHI,AOML,UNKNOWN,North
2021-11-24T21:01:00Z,2021,21,1,328.8757,328.8757,64.167,-60.748,1017.6,-0.6,-999.0,yes,yes,no,300234068346580,BD2GHI,AOML,UNKNOWN,North
2021-11-24T22:01:03Z,2021,22,1,328.9174,328.9174,64.172,-60.738,1018.6,-0.6,-999.0,yes,yes,no,300234068346580,BD2GHI,AOML,UNKNOWN,North
2021-11-24T22:59:57Z,2021,23,0,328.9583,328.9583,64.173,-60.726,1018.7,-0.61,-999.0,yes,yes,no,300234068346580,BD2GHI,AOML,UNKNOWN,North
2021-11-25T00:00:00Z,2021,0,0,329.0,329.0,64.171,-60.713,1019.2,-0.62,-999.0,yes,yes,no,300234068346580,BD2GHI,AOML,UNKNOWN,North
2021-11-25T01:03:56Z,2021,1,4,329.0444,329.0444,64.165,-60.701,1019.8,-0.63,-999.0,yes,yes,no,300234068346580,BD2GHI,AOML,UNKNOWN,North
2021-11-25T02:00:57Z,2021,2,1,329.084,329.084,64.161,-60.687,1020.0,-0.63,-999.0,yes,yes,no,300234068346580,BD2GHI,AOML,UNKNOWN,North
2021-11-25T03:03:01Z,2021,3,3,329.1271,329.1271,64.153,-60.671,1020.0,-0.63,-999.0,yes,yes,no,300234068346580,BD2GHI,AOML,UNKNOWN,North
2021-11-25T04:00:02Z,2021,4,0,329.1667,329.1667,64.146,-60.659,1020.3,-0.63,-999.0,yes,yes,no,300234068346580,BD2GHI,AOML,UNKNOWN,North
2021-11-25T05:00:57Z,2021,5,1,329.209,329.209,64.139,-60.65,1021.0,-0.62,-999.0,yes,yes,no,300234068346580,BD2GHI,AOML,UNKNOWN,North
2021-11-25T06:01:00Z,2021,6,1,329.2507,329.2507,64.132,-60.645,1021.7,-0.62,-999.0,yes,yes,no,300234068346580,BD2GHI,AOML,UNKNOWN,North
2021-11-25T07:00:02Z,2021,7,0,329.2917,329.2917,64.128,-60.648,1022.1,-0.61,-999.0,yes,yes,no,300234068346580,BD2GHI,AOML,UNKNOWN,North
2021-11-25T07:59:57Z,2021,8,0,329.3333,329.3333,64.123,-60.651,1022.5,-0.61,-999.0,yes,yes,no,300234068346580,BD2GHI,AOML,UNKNOWN,North
2021-11-25T09:00:00Z,2021,9,0,329.375,329.375,64.119,-60.659,1022.4,-0.6,-999.0,yes,yes,no,300234068346580,BD2GHI,AOML,UNKNOWN,North
2021-11-25T10:00:02Z,2021,10,0,329.4167,329.4167,64.118,-60.668,1022.1,-0.6,-999.0,yes,yes,no,300234068346580,BD2GHI,AOML,UNKNOWN,North
2021-11-25T12:00:00Z,2021,12,0,329.5,329.5,64.119,-60.674,1022.1,-0.6,-999.0,yes,yes,no,300234068346580,BD2GHI,AOML,UNKNOWN,North
2021-11-25T13:03:56Z,2021,13,4,329.5444,329.5444,-90.0,-180.0,1022.0,-0.6,-999.0,yes,yes,no,300234068346580,BD2GHI,AOML,UNKNOWN,North
2021-11-25T14:01:58Z,2021,14,2,329.5847,329.5847,64.119,-60.668,1022.1,-0.6,-999.0,yes,yes,no,300234068346580,BD2GHI,AOML,UNKNOWN,North
2021-11-25T15:00:00Z,2021,15,0,329.625,329.625,64.12,-60.659,1022.0,-0.59,-999.0,yes,yes,no,300234068346580,BD2GHI,AOML,UNKNOWN,North
2021-11-25T18:01:00Z,2021,18,1,329.7507,329.7507,64.128,-60.613,1021.2,-0.59,-999.0,yes,yes,no,300234068346580,BD2GHI,AOML,UNKNOWN,North
2021-11-25T19:00:02Z,2021,19,0,329.7917,329.7917,64.131,-60.598,1021.2,-0.59,-999.0,yes,yes,no,300234068346580,BD2GHI,AOML,UNKNOWN,North
2021-11-25T19:59:57Z,2021,20,0,329.8333,329.8333,64.131,-60.585,1021.1,-0.59,-999.0,yes,yes,no,300234068346580,BD2GHI,AOML,UNKNOWN,North
2021-11-25T21:00:00Z,2021,21,0,329.875,329.875,64.13,-60.578,1020.6,-0.6,-999.0,yes,yes,no,300234068346580,BD2GHI,AOML,UNKNOWN,North
2021-11-25T22:00:02Z,2021,22,0,329.9167,329.9167,64.131,-60.57,1020.5,-0.6,-999.0,yes,yes,no,300234068346580,BD2GHI,AOML,UNKNOWN,North
2021-11-25T22:59:57Z,2021,23,0,329.9583,329.9583,64.128,-60.563,1019.5,-0.61,-999.0,yes,yes,no,300234068346580,BD2GHI,AOML,UNKNOWN,North
2021-11-26T00:00:00Z,2021,0,0,330.0,330.0,64.125,-60.558,1018.9,-0.61,-999.0,yes,yes,no,300234068346580,BD2GHI,AOML,UNKNOWN,North
2021-11-26T01:00:02Z,2021,1,0,330.0417,330.0417,64.12,-60.554,1018.4,-0.62,-999.0,yes,yes,no,300234068346580,BD2GHI,AOML,UNKNOWN,North
2021-11-26T01:59:57Z,2021,2,0,330.0833,330.0833,64.115,-60.55,1017.8,-0.65,-999.0,yes,yes,no,300234068346580,BD2GHI,AOML,UNKNOWN,North
2021-11-26T03:00:00Z,2021,3,0,330.125,330.125,64.11,-60.54,1017.2,-0.69,-999.0,yes,yes,no,300234068346580,BD2GHI,AOML,UNKNOWN,North
2021-11-26T04:00:02Z,2021,4,0,330.1667,330.1667,64.104,-60.529,1016.7,-0.69,-999.0,yes,yes,no,300234068346580,BD2GHI,AOML,UNKNOWN,North
2021-11-26T04:59:57Z,2021,5,0,330.2083,330.2083,64.098,-60.519,1016.6,-0.66,-999.0,yes,yes,no,300234068346580,BD2GHI,AOML,UNKNOWN,North
2021-11-26T06:00:00Z,2021,6,0,330.25,330.25,64.092,-60.511,1016.3,-0.66,-999.0,yes,yes,no,300234068346580,BD2GHI,AOML,UNKNOWN,North
2021-11-26T07:00:02Z,2021,7,0,330.2917,330.2917,64.084,-60.501,1016.3,-0.72,-999.0,yes,yes,no,300234068346580,BD2GHI,AOML,UNKNOWN,North
2021-11-26T07:59:57Z,2021,8,0,330.3333,330.3333,64.075,-60.499,1016.3,-0.73,-999.0,yes,yes,no,300234068346580,BD2GHI,AOML,UNKNOWN,North
2021-11-26T09:00:00Z,2021,9,0,330.375,330.375,64.069,-60.503,1016.6,-0.76,-999.0,yes,yes,no,300234068346580,BD2GHI,AOML,UNKNOWN,North
2021-11-26T10:00:02Z,2021,10,0,330.4167,330.4167,64.064,-60.512,1016.5,-0.88,-999.0,yes,yes,no,300234068346580,BD2GHI,AOML,UNKNOWN,North
2021-11-26T12:00:00Z,2021,12,0,330.5,330.5,64.061,-60.54,1016.7,-0.8,-999.0,yes,yes,no,300234068346580,BD2GHI,AOML,UNKNOWN,North
2021-11-26T13:00:02Z,2021,13,0,330.5417,330.5417,64.061,-60.548,1016.7,-0.8,-999.0,yes,yes,no,300234068346580,BD2GHI,AOML,UNKNOWN,North
2021-11-26T13:59:57Z,2021,14,0,330.5833,330.5833,64.064,-60.552,1016.9,-0.77,-999.0,yes,yes,no,300234068346580,BD2GHI,AOML,UNKNOWN,North
2021-11-26T15:00:00Z,2021,15,0,330.625,330.625,64.068,-60.544,1016.7,-0.75,-999.0,yes,yes,no,300234068346580,BD2GHI,AOML,UNKNOWN,North
2021-11-26T16:00:02Z,2021,16,0,330.6667,330.6667,64.07,-60.53,1016.1,-0.74,-999.0,yes,yes,no,300234068346580,BD2GHI,AOML,UNKNOWN,North
2021-11-26T16:59:57Z,2021,17,0,330.7083,330.7083,64.071,-60.507,1016.0,-0.73,-999.0,yes,yes,no,300234068346580,BD2GHI,AOML,UNKNOWN,North
2021-11-26T18:00:00Z,2021,18,0,330.75,330.75,64.069,-60.482,1015.8,-0.73,-999.0,yes,yes,no,300234068346580,BD2GHI,AOML,UNKNOWN,North
2021-11-26T19:00:02Z,2021,19,0,330.7917,330.7917,64.065,-60.461,1016.0,-0.74,-999.0,yes,yes,no,300234068346580,BD2GHI,AOML,UNKNOWN,North
2021-11-26T20:00:57Z,2021,20,1,330.834,330.834,64.062,-60.446,1015.9,-0.73,-999.0,yes,yes,no,300234068346580,BD2GHI,AOML,UNKNOWN,North
2021-11-26T21:00:00Z,2021,21,0,330.875,330.875,64.055,-60.441,1015.8,-0.73,-999.0,yes,yes,no,300234068346580,BD2GHI,AOML,UNKNOWN,North
2021-11-26T22:00:02Z,2021,22,0,330.9167,330.9167,64.05,-60.441,1015.5,-0.72,-999.0,yes,yes,no,300234068346580,BD2GHI,AOML,UNKNOWN,North
2021-11-26T22:59:57Z,2021,23,0,330.9583,330.9583,64.043,-60.438,1014.8,-0.71,-999.0,yes,yes,no,300234068346580,BD2GHI,AOML,UNKNOWN,North
2021-11-27T00:00:00Z,2021,0,0,331.0,331.0,64.038,-60.437,1014.0,-0.72,-999.0,yes,yes,no,300234068346580,BD2GHI,AOML,UNKNOWN,North
2021-11-27T01:00:02Z,2021,1,0,331.0417,331.0417,64.031,-60.435,1013.6,-0.72,-999.0,yes,yes,no,300234068346580,BD2GHI,AOML,UNKNOWN,North
2021-11-27T01:59:57Z,2021,2,0,331.0833,331.0833,64.024,-60.434,1013.0,-0.71,-999.0,yes,yes,no,300234068346580,BD2GHI,AOML,UNKNOWN,North
2021-11-27T03:00:00Z,2021,3,0,331.125,331.125,64.014,-60.433,1012.4,-0.69,-999.0,yes,yes,no,300234068346580,BD2GHI,AOML,UNKNOWN,North
2021-11-27T04:00:02Z,2021,4,0,331.1667,331.1667,64.005,-60.433,1011.9,-0.69,-999.0,yes,yes,no,300234068346580,BD2GHI,AOML,UNKNOWN,North
2021-11-27T04:59:57Z,2021,5,0,331.2083,331.2083,63.996,-60.436,1011.0,-0.68,-999.0,yes,yes,no,300234068346580,BD2GHI,AOML,UNKNOWN,North
2021-11-27T06:00:00Z,2021,6,0,331.25,331.25,63.988,-60.438,1010.6,-0.68,-999.0,yes,yes,no,300234068346580,BD2GHI,AOML,UNKNOWN,North
2021-11-27T07:00:02Z,2021,7,0,331.2917,331.2917,63.978,-60.443,1010.3,-0.67,-999.0,yes,yes,no,300234068346580,BD2GHI,AOML,UNKNOWN,North
2021-11-27T08:01:58Z,2021,8,2,331.3347,331.3347,63.971,-60.449,1009.8,-0.67,-999.0,yes,yes,no,300234068346580,BD2GHI,AOML,UNKNOWN,North
2021-11-27T09:00:00Z,2021,9,0,331.375,331.375,63.961,-60.457,1009.0,-0.66,-999.0,yes,yes,no,300234068346580,BD2GHI,AOML,UNKNOWN,North
2021-11-27T10:00:02Z,2021,10,0,331.4167,331.4167,63.954,-60.476,1008.5,-0.64,-999.0,yes,yes,no,300234068346580,BD2GHI,AOML,UNKNOWN,North
2021-11-27T12:00:00Z,2021,12,0,331.5,331.5,63.942,-60.533,1007.3,-0.64,-999.0,yes,yes,no,300234068346580,BD2GHI,AOML,UNKNOWN,North
2021-11-27T13:01:03Z,2021,13,1,331.5424,331.5424,63.938,-60.558,1006.2,-0.63,-999.0,yes,yes,no,300234068346580,BD2GHI,AOML,UNKNOWN,North
2021-11-27T13:59:57Z,2021,14,0,331.5833,331.5833,63.937,-60.579,1006.0,-0.62,-999.0,yes,yes,no,300234068346580,BD2GHI,AOML,UNKNOWN,North
2021-11-27T15:02:00Z,2021,15,2,331.6264,331.6264,63.936,-60.597,1004.9,-0.62,-999.0,yes,yes,no,300234068346580,BD2GHI,AOML,UNKNOWN,North
2021-11-27T16:01:03Z,2021,16,1,331.6674,331.6674,63.935,-60.616,1004.5,-0.62,-999.0,yes,yes,no,300234068346580,BD2GHI,AOML,UNKNOWN,North
2021-11-27T16:59:57Z,2021,17,0,331.7083,331.7083,63.933,-60.63,1003.2,-0.62,-999.0,yes,yes,no,300234068346580,BD2GHI,AOML,UNKNOWN,North
2021-11-27T18:00:00Z,2021,18,0,331.75,331.75,63.932,-60.646,1002.8,-0.61,-999.0,yes,yes,no,300234068346580,BD2GHI,AOML,UNKNOWN,North
2021-11-27T19:03:56Z,2021,19,4,331.7944,331.7944,63.932,-60.66,1002.7,-0.6,-999.0,yes,yes,no,300234068346580,BD2GHI,AOML,UNKNOWN,North
2021-11-27T19:59:57Z,2021,20,0,331.8333,331.8333,63.931,-60.67,1002.4,-0.58,-999.0,yes,yes,no,300234068346580,BD2GHI,AOML,UNKNOWN,North
2021-11-27T21:00:00Z,2021,21,0,331.875,331.875,63.929,-60.684,1001.7,-0.59,-999.0,yes,yes,no,300234068346580,BD2GHI,AOML,UNKNOWN,North
2021-11-27T22:00:02Z,2021,22,0,331.9167,331.9167,63.926,-60.698,1001.4,-0.59,-999.0,yes,yes,no,300234068346580,BD2GHI,AOML,UNKNOWN,North
2021-11-27T23:00:57Z,2021,23,1,331.959,331.959,63.923,-60.712,1001.0,-0.59,-999.0,yes,yes,no,300234068346580,BD2GHI,AOML,UNKNOWN,North
2021-11-28T00:02:00Z,2021,0,2,332.0014,332.0014,63.918,-60.728,1000.4,-0.61,-999.0,yes,yes,no,300234068346580,BD2GHI,AOML,UNKNOWN,North
2021-11-28T01:01:03Z,2021,1,1,332.0424,332.0424,63.913,-60.746,1000.4,-0.63,-999.0,yes,yes,no,300234068346580,BD2GHI,AOML,UNKNOWN,North
2021-11-28T02:00:57Z,2021,2,1,332.084,332.084,63.904,-60.765,1000.1,-0.64,-999.0,yes,yes,no,300234068346580,BD2GHI,AOML,UNKNOWN,North
2021-11-28T03:02:00Z,2021,3,2,332.1264,332.1264,63.894,-60.788,1000.0,-0.65,-999.0,yes,yes,no,300234068346580,BD2GHI,AOML,UNKNOWN,North
2021-11-28T04:00:02Z,2021,4,0,332.1667,332.1667,63.881,-60.805,999.9,-0.66,-999.0,yes,yes,no,300234068346580,BD2GHI,AOML,UNKNOWN,North
2021-11-28T04:59:57Z,2021,5,0,332.2083,332.2083,63.873,-60.826,1000.2,-0.66,-999.0,yes,yes,no,300234068346580,BD2GHI,AOML,UNKNOWN,North
2021-11-28T06:01:00Z,2021,6,1,332.2507,332.2507,63.864,-60.849,999.4,-0.66,-999.0,yes,yes,no,300234068346580,BD2GHI,AOML,UNKNOWN,North
2021-11-28T07:00:02Z,2021,7,0,332.2917,332.2917,63.854,-60.87,999.2,-0.64,-999.0,yes,yes,no,300234068346580,BD2GHI,AOML,UNKNOWN,North
2021-11-28T08:03:59Z,2021,8,4,332.3361,332.3361,63.848,-60.894,999.3,-0.64,-999.0,yes,yes,no,300234068346580,BD2GHI,AOML,UNKNOWN,North
2021-11-28T09:01:00Z,2021,9,1,332.3757,332.3757,63.841,-60.909,998.8,-0.63,-999.0,yes,yes,no,300234068346580,BD2GHI,AOML,UNKNOWN,North
2021-11-28T10:01:03Z,2021,10,1,332.4174,332.4174,63.837,-60.932,998.8,-0.62,-999.0,yes,yes,no,300234068346580,BD2GHI,AOML,UNKNOWN,North
2021-11-28T11:03:59Z,2021,11,4,332.4611,332.4611,63.829,-60.959,998.9,-0.61,-999.0,yes,yes,no,300234068346580,BD2GHI,AOML,UNKNOWN,North
2021-11-28T12:00:00Z,2021,12,0,332.5,332.5,63.822,-60.989,998.4,-0.61,-999.0,yes,yes,no,300234068346580,BD2GHI,AOML,UNKNOWN,North
2021-11-28T13:03:56Z,2021,13,4,332.5444,332.5444,63.818,-61.016,997.1,-0.6,-999.0,yes,yes,no,300234068346580,BD2GHI,AOML,UNKNOWN,North
2021-11-28T14:00:57Z,2021,14,1,332.584,332.584,63.816,-61.039,996.8,-0.6,-999.0,yes,yes,no,300234068346580,BD2GHI,AOML,UNKNOWN,North
2021-11-28T15:01:00Z,2021,15,1,332.6257,332.6257,63.813,-61.06,995.5,-0.59,-999.0,yes,yes,no,300234068346580,BD2GHI,AOML,UNKNOWN,North
2021-11-28T16:01:03Z,2021,16,1,332.6674,332.6674,63.813,-61.077,993.5,-0.59,-999.0,yes,yes,no,300234068346580,BD2GHI,AOML,UNKNOWN,North
2021-11-28T17:00:57Z,2021,17,1,332.709,332.709,63.811,-61.09,991.6,-0.59,-999.0,yes,yes,no,300234068346580,BD2GHI,AOML,UNKNOWN,North
2021-11-28T18:04:01Z,2021,18,4,332.7528,332.7528,63.807,-61.1,989.9,-0.6,-999.0,yes,yes,no,300234068346580,BD2GHI,AOML,UNKNOWN,North
2021-11-28T19:03:56Z,2021,19,4,332.7944,332.7944,-90.0,-180.0,988.5,-0.6,-999.0,yes,yes,no,300234068346580,BD2GHI,AOML,UNKNOWN,North
2021-11-28T20:01:58Z,2021,20,2,332.8347,332.8347,63.796,-61.116,987.3,-0.61,-999.0,yes,yes,no,300234068346580,BD2GHI,AOML,UNKNOWN,North
2021-11-28T21:00:00Z,2021,21,0,332.875,332.875,63.79,-61.126,986.3,-0.61,-999.0,yes,yes,no,300234068346580,BD2GHI,AOML,UNKNOWN,North
2021-11-28T22:00:02Z,2021,22,0,332.9167,332.9167,63.785,-61.14,985.3,-0.62,-999.0,yes,yes,no,300234068346580,BD2GHI,AOML,UNKNOWN,North
2021-11-29T00:02:00Z,2021,0,2,333.0014,333.0014,63.772,-61.18,984.6,-0.64,-999.0,yes,yes,no,300234068346580,BD2GHI,AOML,UNKNOWN,North
2021-11-29T01:01:03Z,2021,1,1,333.0424,333.0424,63.771,-61.202,984.1,-0.64,-999.0,yes,yes,no,300234068346580,BD2GHI,AOML,UNKNOWN,North
2021-11-29T01:59:57Z,2021,2,0,333.0833,333.0833,63.772,-61.222,984.3,-0.66,-999.0,yes,yes,no,300234068346580,BD2GHI,AOML,UNKNOWN,North
2021-11-29T03:01:00Z,2021,3,1,333.1257,333.1257,63.765,-61.23,984.9,-0.66,-999.0,yes,yes,no,300234068346580,BD2GHI,AOML,UNKNOWN,North
2021-11-29T04:03:56Z,2021,4,4,333.1694,333.1694,-90.0,-180.0,985.3,-0.65,-999.0,yes,yes,no,300234068346580,BD2GHI,AOML,UNKNOWN,North
2021-11-29T05:03:59Z,2021,5,4,333.2111,333.2111,-90.0,-180.0,985.1,-0.67,-999.0,yes,yes,no,300234068346580,BD2GHI,AOML,UNKNOWN,North
2021-11-29T06:03:01Z,2021,6,3,333.2521,333.2521,63.756,-61.228,985.1,-0.67,-999.0,yes,yes,no,300234068346580,BD2GHI,AOML,UNKNOWN,North
2021-11-29T07:00:02Z,2021,7,0,333.2917,333.2917,63.748,-61.222,984.8,-0.68,-999.0,yes,yes,no,300234068346580,BD2GHI,AOML,UNKNOWN,North
2021-11-29T07:59:57Z,2021,8,0,333.3333,333.3333,63.736,-61.222,984.8,-0.68,-999.0,yes,yes,no,300234068346580,BD2GHI,AOML,UNKNOWN,North
2021-11-29T09:00:00Z,2021,9,0,333.375,333.375,63.725,-61.222,985.1,-0.68,-999.0,yes,yes,no,300234068346580,BD2GHI,AOML,UNKNOWN,North
2021-11-29T10:01:03Z,2021,10,1,333.4174,333.4174,63.718,-61.225,985.6,-0.69,-999.0,yes,yes,no,300234068346580,BD2GHI,AOML,UNKNOWN,North
2021-11-29T11:02:58Z,2021,11,3,333.4604,333.4604,63.703,-61.245,985.8,-0.69,-999.0,yes,yes,no,300234068346580,BD2GHI,AOML,UNKNOWN,North
2021-11-29T13:00:02Z,2021,13,0,333.5417,333.5417,63.692,-61.293,986.3,-0.69,-999.0,yes,yes,no,300234068346580,BD2GHI,AOML,UNKNOWN,North
2021-11-29T14:03:59Z,2021,14,4,333.5861,333.5861,63.693,-61.324,986.5,-0.69,-999.0,yes,yes,no,300234068346580,BD2GHI,AOML,UNKNOWN,North
2021-11-29T15:00:00Z,2021,15,0,333.625,333.625,63.697,-61.347,986.6,-0.69,-999.0,yes,yes,no,300234068346580,BD2GHI,AOML,UNKNOWN,North
2021-11-29T16:00:02Z,2021,16,0,333.6667,333.6667,63.704,-61.362,986.8,-0.69,-999.0,yes,yes,no,300234068346580,BD2GHI,AOML,UNKNOWN,North
2021-11-29T17:03:59Z,2021,17,4,333.7111,333.7111,63.711,-61.366,987.2,-0.69,-999.0,yes,yes,no,300234068346580,BD2GHI,AOML,UNKNOWN,North
2021-11-29T18:02:00Z,2021,18,2,333.7514,333.7514,63.713,-61.357,987.5,-0.7,-999.0,yes,yes,no,300234068346580,BD2GHI,AOML,UNKNOWN,North
2021-11-29T19:00:02Z,2021,19,0,333.7917,333.7917,63.715,-61.341,988.0,-0.69,-999.0,yes,yes,no,300234068346580,BD2GHI,AOML,UNKNOWN,North
2021-11-29T19:59:57Z,2021,20,0,333.8333,333.8333,63.711,-61.322,988.6,-0.7,-999.0,yes,yes,no,300234068346580,BD2GHI,AOML,UNKNOWN,North
2021-11-29T21:01:00Z,2021,21,1,333.8757,333.8757,63.703,-61.303,989.5,-0.7,-999.0,yes,yes,no,300234068346580,BD2GHI,AOML,UNKNOWN,North
2021-11-29T22:00:02Z,2021,22,0,333.9167,333.9167,63.695,-61.29,990.3,-0.69,-999.0,yes,yes,no,300234068346580,BD2GHI,AOML,UNKNOWN,North
2021-11-29T22:59:57Z,2021,23,0,333.9583,333.9583,63.684,-61.283,991.1,-0.69,-999.0,yes,yes,no,300234068346580,BD2GHI,AOML,UNKNOWN,North
2021-11-30T00:04:01Z,2021,0,4,334.0028,334.0028,63.672,-61.288,992.1,-0.69,-999.0,yes,yes,no,300234068346580,BD2GHI,AOML,UNKNOWN,North
2021-11-30T01:03:56Z,2021,1,4,334.0444,334.0444,63.661,-61.299,992.9,-0.69,-999.0,yes,yes,no,300234068346580,BD2GHI,AOML,UNKNOWN,North
2021-11-30T02:02:58Z,2021,2,3,334.0854,334.0854,63.654,-61.317,993.6,-0.69,-999.0,yes,yes,no,300234068346580,BD2GHI,AOML,UNKNOWN,North
2021-11-30T03:00:00Z,2021,3,0,334.125,334.125,63.651,-61.339,994.4,-0.69,-999.0,yes,yes,no,300234068346580,BD2GHI,AOML,UNKNOWN,North
2021-11-30T04:00:02Z,2021,4,0,334.1667,334.1667,63.649,-61.361,995.2,-0.69,-999.0,yes,yes,no,300234068346580,BD2GHI,AOML,UNKNOWN,North
2021-11-30T04:59:57Z,2021,5,0,334.2083,334.2083,63.649,-61.377,996.3,-0.69,-999.0,yes,yes,no,300234068346580,BD2GHI,AOML,UNKNOWN,North
2021-11-30T06:01:00Z,2021,6,1,334.2507,334.2507,63.648,-61.383,997.3,-0.69,-999.0,yes,yes,no,300234068346580,BD2GHI,AOML,UNKNOWN,North
2021-11-30T07:01:03Z,2021,7,1,334.2924,334.2924,63.645,-61.38,998.3,-0.69,-999.0,yes,yes,no,300234068346580,BD2GHI,AOML,UNKNOWN,North
2021-11-30T08:00:57Z,2021,8,1,334.334,334.334,63.642,-61.372,999.3,-0.7,-999.0,yes,yes,no,300234068346580,BD2GHI,AOML,UNKNOWN,North
2021-11-30T10:00:02Z,2021,10,0,334.4167,334.4167,63.627,-61.344,1001.4,-0.7,-999.0,yes,yes,no,300234068346580,BD2GHI,AOML,UNKNOWN,North
2021-11-30T12:00:00Z,2021,12,0,334.5,334.5,63.607,-61.34,1003.0,-0.7,-999.0,yes,yes,no,300234068346580,BD2GHI,AOML,UNKNOWN,North
2021-11-30T13:00:02Z,2021,13,0,334.5417,334.5417,63.599,-61.348,1003.9,-0.7,-999.0,yes,yes,no,300234068346580,BD2GHI,AOML,UNKNOWN,North
2021-11-30T14:03:59Z,2021,14,4,334.5861,334.5861,63.596,-61.364,1004.4,-0.71,-999.0,yes,yes,no,300234068346580,BD2GHI,AOML,UNKNOWN,North
2021-11-30T15:00:00Z,2021,15,0,334.625,334.625,63.594,-61.383,1005.0,-0.71,-999.0,yes,yes,no,300234068346580,BD2GHI,AOML,UNKNOWN,North
2021-11-30T16:00:02Z,2021,16,0,334.6667,334.6667,63.595,-61.406,1005.0,-0.71,-999.0,yes,yes,no,300234068346580,BD2GHI,AOML,UNKNOWN,North
2021-11-30T17:00:57Z,2021,17,1,334.709,334.709,63.597,-61.426,1004.7,-0.72,-999.0,yes,yes,no,300234068346580,BD2GHI,AOML,UNKNOWN,North
2021-11-30T18:00:00Z,2021,18,0,334.75,334.75,63.602,-61.439,1004.3,-0.73,-999.0,yes,yes,no,300234068346580,BD2GHI,AOML,UNKNOWN,North
2021-11-30T19:00:02Z,2021,19,0,334.7917,334.7917,63.608,-61.444,1004.2,-0.74,-999.0,yes,yes,no,300234068346580,BD2GHI,AOML,UNKNOWN,North
2021-11-30T19:59:57Z,2021,20,0,334.8333,334.8333,63.612,-61.435,1004.3,-0.73,-999.0,yes,yes,no,300234068346580,BD2GHI,AOML,UNKNOWN,North
2021-11-30T21:01:00Z,2021,21,1,334.8757,334.8757,63.616,-61.416,1004.1,-0.73,-999.0,yes,yes,no,300234068346580,BD2GHI,AOML,UNKNOWN,North
2021-11-30T22:01:03Z,2021,22,1,334.9174,334.9174,63.616,-61.386,1003.5,-0.74,-999.0,yes,yes,no,300234068346580,BD2GHI,AOML,UNKNOWN,North
2021-11-30T23:01:58Z,2021,23,2,334.9597,334.9597,63.611,-61.354,1003.0,-0.74,-999.0,yes,yes,no,300234068346580,BD2GHI,AOML,UNKNOWN,North
2021-12-01T00:00:00Z,2021,0,0,335.0,335.0,63.601,-61.331,1001.6,-0.74,-999.0,yes,yes,no,300234068346580,BD2GHI,AOML,UNKNOWN,North
2021-12-01T01:00:02Z,2021,1,0,335.0417,335.0417,63.588,-61.322,1000.3,-0.75,-999.0,yes,yes,no,300234068346580,BD2GHI,AOML,UNKNOWN,North
2021-12-01T01:59:57Z,2021,2,0,335.0833,335.0833,63.574,-61.326,998.2,-0.75,-999.0,yes,yes,no,300234068346580,BD2GHI,AOML,UNKNOWN,North
2021-12-01T03:00:00Z,2021,3,0,335.125,335.125,63.564,-61.342,996.3,-0.8,-999.0,yes,yes,no,300234068346580,BD2GHI,AOML,UNKNOWN,North
2021-12-01T04:00:02Z,2021,4,0,335.1667,335.1667,63.554,-61.368,994.0,-0.81,-999.0,yes,yes,no,300234068346580,BD2GHI,AOML,UNKNOWN,North
2021-12-01T04:59:57Z,2021,5,0,335.2083,335.2083,63.549,-61.399,991.2,-0.78,-999.0,yes,yes,no,300234068346580,BD2GHI,AOML,UNKNOWN,North
2021-12-01T06:00:00Z,2021,6,0,335.25,335.25,63.546,-61.432,989.8,-0.78,-999.0,yes,yes,no,300234068346580,BD2GHI,AOML,UNKNOWN,North
2021-12-01T07:00:02Z,2021,7,0,335.2917,335.2917,63.546,-61.456,988.3,-0.77,-999.0,yes,yes,no,300234068346580,BD2GHI,AOML,UNKNOWN,North
2021-12-01T08:03:59Z,2021,8,4,335.3361,335.3361,63.548,-61.471,986.8,-0.78,-999.0,yes,yes,no,300234068346580,BD2GHI,AOML,UNKNOWN,North
2021-12-01T09:04:01Z,2021,9,4,335.3778,335.3778,-90.0,-180.0,985.1,-0.77,-999.0,yes,yes,no,300234068346580,BD2GHI,AOML,UNKNOWN,North
2021-12-01T10:03:04Z,2021,10,3,335.4188,335.4188,63.551,-61.458,983.8,-0.76,-999.0,yes,yes,no,300234068346580,BD2GHI,AOML,UNKNOWN,North